Location: Steilacoom
(47.1700°N, 122.5700°W)
Time: 14:41:17
(UTC-07:00)

Envisat - Visible Passes

Search period start: 24 March 2019 00:00
Search period end: 03 April 2019 00:00
Orbit: 764 x 766 km, 98.2° (Epoch: 24 March)

Date Brightness Start Highest point End Pass type
(mag) Time Alt. Az. Time Alt. Az. Time Alt. Az.
24 Mar 4.8 20:27:07 10° SSW 20:31:44 35° W 20:36:23 10° NNW visible
26 Mar 5.6 20:53:41 10° SW 20:57:29 21° W 21:01:20 10° NW visible
27 Mar 4.4 20:15:38 10° S 20:20:27 43° W 20:25:18 10° NNW visible
28 Mar 6.1 21:21:15 10° WSW 21:23:21 12° W 21:25:28 10° WNW visible
29 Mar 5.3 20:41:57 10° SSW 20:46:10 26° W 20:50:24 10° NW visible
30 Mar 3.9 20:04:13 10° S 20:09:11 54° W 20:14:11 10° NNW visible
31 Mar 5.9 21:08:58 10° SW 21:11:59 16° W 21:15:00 10° NW visible
01 Apr 5.0 20:30:20 10° SSW 20:34:51 32° W 20:39:25 10° NNW visible
